Weather Roundup
Issued by NWS Chicago, IL

Home | Current Version | Previous Version | Text Only | Print | Product List | Glossary Off
Versions: 1 2 3 4 5 6 7 8 9 10 11 12 13 14 15 16 17 18 19 20 21 22 23 24 25 26 27 28 29 30 31 32 33 34 35 36 37 38 39 40 41 42 43 44 45 46 47 48 49 50

000
NZUS59 KLOT 070712
HRRLOT

CHICAGO AREA WEATHER ROUNDUP
NATIONAL WEATHER SERVICE CHICAGO/ROMEOVILLE IL
100 AM CST WED DEC 07 2016

NOTE: "FAIR" INDICATES FEW OR NO CLOUDS BELOW 12,000 FEET WITH NO
SIGNIFICANT WEATHER AND/OR OBSTRUCTIONS TO VISIBILITY.

* THESE STATIONS ARE NOT UNDER NWS QUALITY CONTROL. THEY ALSO MAY NOT
  REPORT WEATHER SUCH AS PRECIPITATION OR FOG.

ILZ005-006-012>014-019>023-070800-
NORTHEAST ILLINOIS

CITY           SKY/WX    TMP DP  RH WIND       PRES   REMARKS
OHARE          PTCLDY    26  18  71 W15       29.99R WCI  14
MIDWAY         MOCLDY    28  18  66 W13       30.01R WCI  17
AURORA         CLEAR     26  19  74 SW12      30.01R WCI  16
LANSING*       PTCLDY    28  22  78 W17       30.02R WCI  16
JOLIET*        MOCLDY    29  21  70 W7G17     30.03S WCI  22
WAUKEGAN       CLEAR     26  17  68 W10G23    29.93R WCI  16
DUPAGE AIRPORT CLEAR     26  17  68 W14       29.99R WCI  14
WHEELING       CLEAR     26  17  68 W12       29.99R WCI  16
KANKAKEE*      PTCLDY    29  22  74 W13G20    30.05F WCI  19
MORRIS*        PTCLDY    28  20  71 W15       30.02F WCI  17
LEWIS AIRPORT* MOCLDY    26  23  87 W15G21    30.02S WCI  14
NORTHERLY ISL    N/A     28  20  71 W14         N/A  WCI  17
$$

WIZ051-052-058>065-066-070>072-070800-
SOUTHEAST WISCONSIN

CITY           SKY/WX    TMP DP  RH WIND       PRES   REMARKS
MILWAUKEE      PTCLDY    27  17  66 W10       29.90R WCI  17
KENOSHA*       CLEAR     26  16  65 W15G28    29.92R WCI  14
RACINE*        CLEAR     26  16  65 W16G23    29.92R WCI  14
BURLINGTON     CLEAR     24  17  75 W12G17    29.93S WCI  13
WAUKESHA       MOCLDY    23  18  80 SW10G18   29.92R WCI  12
WEST BEND      CLOUDY    27  19  74 W10G22    29.87R WCI  17
$$

INZ001>003-010>013-019-020-070800-
NORTHWEST INDIANA

CITY           SKY/WX    TMP DP  RH WIND       PRES   REMARKS
GARY*          CLOUDY    30  21  69 W12G18    30.03R WCI  21
MICHIGAN CITY* NOT AVBL
RENSSELAER*    NOT AVBL
VALPARAISO     PTCLDY    28  19  69 W17       30.02R WCI  16
$$

LMZ740>746-070800-
SOUTHERN LAKE MICHIGAN

STATION/POSITION TIME  SKY/WX   TEMP WIND        PRES    VSBY
                                AIR  DIR/SP/G
                 (UTC)          (F)  (DEG/KT/KT) (MB)    (MI)
HARRISON CRIB    0640            29  260/ 24/ 27   N/A
BURNHAM HARBOR   0700            28  280/ 11/ 19   N/A
CALUMET HARBOR   0648            28  240/ 10/ 16 1015.6R
BURNS HARBOR     0655            31  250/ 19/ 25 1016.6R
MICHIGAN CITY    0640            31  230/ 33/ 36   N/A
$$

ABBREVIATIONS USED IN REMARKS
   TC - TEMPERATURE IN CELSIUS
  WCI - WIND CHILL INDEX
   HX - HEAT INDEX
  VSB - VISIBILITY
$$




USA.gov is the U.S. government's official web portal to all federal, state and local government web resources and services.